| time (UTC) | temp F | wind direction | speed MPH | gust MPH | rain 1hr in | rain 24hr in | rain mn in | humidity % | barometer mb |
| 20260906144826 | 90 | 303 | 1.0 | 4.0 | 0.00 | 0.00 | 0.00 | 42 | 1012.6 |
| 20260906143819 | 90 | 303 | 2.0 | 3.0 | 0.00 | 0.00 | 0.00 | 42 | 1012.5 |
| 20260906142813 | 89 | 303 | 0.0 | 0.0 | 0.00 | 0.00 | 0.00 | 45 | 1012.4 |
| 20260906141828 | 87 | 303 | 0.0 | 1.0 | 0.00 | 0.00 | 0.00 | 50 | 1012.4 |
| 20260906140818 | 85 | 303 | 0.0 | 0.0 | 0.00 | 0.00 | 0.00 | 53 | 1012.1 |
| 20260906135817 | 82 | 303 | 0.0 | 0.0 | 0.00 | 0.00 | 0.00 | 55 | 1012.1 |
| 20260906134832 | 80 | 303 | 0.0 | 0.0 | 0.00 | 0.00 | 0.00 | 56 | 1012.0 |
| 20260906133825 | 79 | 303 | 0.0 | 0.0 | 0.00 | 0.00 | 0.00 | 57 | 1011.8 |
| 20260906132837 | 79 | 303 | 0.0 | 0.0 | 0.00 | 0.00 | 0.00 | 56 | 1011.7 |
| 20260906131828 | 79 | 303 | 0.0 | 0.0 | 0.00 | 0.00 | 0.00 | 55 | 1011.6 |
| 20260906130842 | 79 | 303 | 0.0 | 0.0 | 0.00 | 0.00 | 0.00 | 54 | 1011.4 |
| 20260906125819 | 80 | 303 | 0.0 | 0.0 | 0.00 | 0.00 | 0.00 | 53 | 1011.4 |
| 20260906124829 | 80 | 303 | 0.0 | 0.0 | 0.00 | 0.00 | 0.00 | 53 | 1011.4 |
| 20260906123823 | 80 | 303 | 0.0 | 0.0 | 0.00 | 0.00 | 0.00 | 52 | 1011.3 |
| 20260906122837 | 81 | 303 | 0.0 | 0.0 | 0.00 | 0.00 | 0.00 | 52 | 1011.3 |
| 20260906121848 | 81 | 303 | 0.0 | 0.0 | 0.00 | 0.00 | 0.00 | 50 | 1011.3 |
| 20260906120819 | 80 | 303 | 0.0 | 0.0 | 0.00 | 0.00 | 0.00 | 50 | 1011.3 |
| 20260906115835 | 80 | 303 | 0.0 | 0.0 | 0.00 | 0.00 | 0.00 | 51 | 1011.2 |
| 20260906114825 | 81 | 303 | 0.0 | 0.0 | 0.00 | 0.00 | 0.00 | 51 | 1011.2 |
| 20260906113819 | 81 | 303 | 0.0 | 0.0 | 0.00 | 0.00 | 0.00 | 51 | 1011.2 |
| 20260906112853 | 80 | 303 | 0.0 | 0.0 | 0.00 | 0.00 | 0.00 | 51 | 1011.2 |
| 20260906111820 | 80 | 303 | 0.0 | 0.0 | 0.00 | 0.00 | 0.00 | 51 | 1011.1 |
| 20260906110814 | 81 | 303 | 0.0 | 0.0 | 0.00 | 0.00 | 0.00 | 50 | 1011.1 |
| 20260906105853 | 81 | 303 | 0.0 | 0.0 | 0.00 | 0.00 | 0.00 | 50 | 1011.2 |
| 20260906104823 | 82 | 303 | 0.0 | 0.0 | 0.00 | 0.00 | 0.00 | 50 | 1011.2 |
| 20260906103835 | 82 | 303 | 0.0 | 0.0 | 0.00 | 0.00 | 0.00 | 50 | 1011.3 |
| 20260906102830 | 82 | 303 | 0.0 | 0.0 | 0.00 | 0.00 | 0.00 | 49 | 1011.1 |
| 20260906101842 | 83 | 303 | 0.0 | 0.0 | 0.00 | 0.00 | 0.00 | 47 | 1011.2 |
| 20260906100815 | 83 | 303 | 0.0 | 1.0 | 0.00 | 0.00 | 0.00 | 47 | 1011.2 |
| 20260906095813 | 83 | 303 | 0.0 | 0.0 | 0.00 | 0.00 | 0.00 | 47 | 1011.1 |
| 20260906094823 | 84 | 303 | 0.0 | 0.0 | 0.00 | 0.00 | 0.00 | 45 | 1011.0 |
| 20260906093816 | 84 | 303 | 0.0 | 0.0 | 0.00 | 0.00 | 0.00 | 45 | 1011.0 |
| 20260906092830 | 84 | 303 | 0.0 | 0.0 | 0.00 | 0.00 | 0.00 | 45 | 1011.0 |
| 20260906091824 | 84 | 303 | 0.0 | 1.0 | 0.00 | 0.00 | 0.00 | 44 | 1010.9 |
| 20260906090820 | 85 | 303 | 0.0 | 0.0 | 0.00 | 0.00 | 0.00 | 44 | 1011.0 |
| 20260906085813 | 85 | 303 | 0.0 | 0.0 | 0.00 | 0.00 | 0.00 | 43 | 1011.1 |
| 20260906084825 | 85 | 303 | 0.0 | 0.0 | 0.00 | 0.00 | 0.00 | 43 | 1011.2 |
| 20260906083820 | 86 | 303 | 0.0 | 0.0 | 0.00 | 0.00 | 0.00 | 42 | 1011.2 |
| 20260906082833 | 86 | 303 | 0.0 | 0.0 | 0.00 | 0.00 | 0.00 | 42 | 1011.2 |
| 20260906081851 | 86 | 303 | 0.0 | 1.0 | 0.00 | 0.00 | 0.00 | 42 | 1011.3 |
| 20260906080843 | 85 | 303 | 0.0 | 1.0 | 0.00 | 0.00 | 0.00 | 42 | 1011.3 |
| 20260906075814 | 85 | 303 | 0.0 | 1.0 | 0.00 | 0.00 | 0.00 | 42 | 1011.4 |
| 20260906074846 | 85 | 303 | 0.0 | 0.0 | 0.00 | 0.00 | 0.00 | 42 | 1011.5 |
| 20260906073839 | 85 | 303 | 0.0 | 0.0 | 0.00 | 0.00 | 0.00 | 43 | 1011.4 |
| 20260906072830 | 85 | 303 | 0.0 | 0.0 | 0.00 | 0.00 | 0.00 | 43 | 1011.6 |
| 20260906071823 | 85 | 303 | 0.0 | 0.0 | 0.00 | 0.00 | 0.00 | 43 | 1011.6 |
| 20260906070820 | 86 | 303 | 0.0 | 0.0 | 0.00 | 0.00 | 0.00 | 42 | 1011.6 |
| 20260906065834 | 86 | 303 | 0.0 | 0.0 | 0.00 | 0.00 | 0.00 | 42 | 1011.7 |
| 20260906064825 | 86 | 303 | 0.0 | 0.0 | 0.00 | 0.00 | 0.00 | 41 | 1011.7 |
| 20260906063820 | 87 | 303 | 0.0 | 0.0 | 0.00 | 0.00 | 0.00 | 41 | 1011.7 |
| 20260906062833 | 87 | 303 | 0.0 | 0.0 | 0.00 | 0.00 | 0.00 | 40 | 1011.7 |
| 20260906061831 | 88 | 303 | 0.0 | 0.0 | 0.00 | 0.00 | 0.00 | 39 | 1011.7 |
| 20260906060825 | 89 | 303 | 0.0 | 0.0 | 0.00 | 0.00 | 0.00 | 37 | 1011.6 |
| 20260906055819 | 89 | 303 | 0.0 | 0.0 | 0.00 | 0.00 | 0.00 | 37 | 1011.7 |
| 20260906054830 | 90 | 303 | 0.0 | 0.0 | 0.00 | 0.00 | 0.00 | 37 | 1011.7 |
| 20260906053824 | 90 | 303 | 0.0 | 0.0 | 0.00 | 0.00 | 0.00 | 36 | 1011.7 |
| 20260906052823 | 90 | 303 | 0.0 | 0.0 | 0.00 | 0.00 | 0.00 | 35 | 1011.7 |
| 20260906051815 | 91 | 303 | 0.0 | 0.0 | 0.00 | 0.00 | 0.00 | 35 | 1011.8 |
| 20260906050828 | 92 | 303 | 0.0 | 0.0 | 0.00 | 0.00 | 0.00 | 34 | 1011.8 |
| 20260906045822 | 92 | 303 | 0.0 | 0.0 | 0.00 | 0.00 | 0.00 | 33 | 1011.8 |
| 20260906044821 | 93 | 303 | 0.0 | 1.0 | 0.00 | 0.00 | 0.00 | 32 | 1011.8 |
| 20260906043832 | 93 | 303 | 1.0 | 2.0 | 0.00 | 0.00 | 0.00 | 32 | 1011.8 |
| 20260906042825 | 93 | 303 | 1.0 | 2.0 | 0.00 | 0.00 | 0.00 | 32 | 1011.7 |
| 20260906041816 | 94 | 303 | 0.0 | 2.0 | 0.00 | 0.00 | 0.00 | 31 | 1011.8 |
| 20260906040830 | 94 | 303 | 1.0 | 4.0 | 0.00 | 0.00 | 0.00 | 31 | 1011.8 |
| 20260906035826 | 94 | 303 | 1.0 | 3.0 | 0.00 | 0.00 | 0.00 | 31 | 1011.7 |
| 20260906034818 | 95 | 303 | 2.0 | 4.0 | 0.00 | 0.00 | 0.00 | 30 | 1011.7 |
| 20260906033814 | 95 | 303 | 1.0 | 4.0 | 0.00 | 0.00 | 0.00 | 30 | 1011.6 |
| 20260906032827 | 95 | 303 | 2.0 | 5.0 | 0.00 | 0.00 | 0.00 | 30 | 1011.4 |
| 20260906031820 | 95 | 303 | 1.0 | 4.0 | 0.00 | 0.00 | 0.00 | 29 | 1011.4 |
| 20260906030817 | 95 | 303 | 2.0 | 5.0 | 0.00 | 0.00 | 0.00 | 29 | 1011.3 |
| 20260906025827 | 96 | 303 | 2.0 | 6.0 | 0.00 | 0.00 | 0.00 | 29 | 1011.3 |
| 20260906024821 | 96 | 303 | 2.0 | 9.0 | 0.00 | 0.00 | 0.00 | 28 | 1011.1 |
| 20260906023836 | 96 | 303 | 3.0 | 8.0 | 0.00 | 0.00 | 0.00 | 28 | 1011.0 |
| 20260906022848 | 96 | 303 | 2.0 | 4.0 | 0.00 | 0.00 | 0.00 | 28 | 1010.9 |
| 20260906021819 | 97 | 303 | 1.0 | 5.0 | 0.00 | 0.00 | 0.00 | 27 | 1010.8 |
| 20260906020817 | 97 | 303 | 2.0 | 6.0 | 0.00 | 0.00 | 0.00 | 27 | 1010.8 |
| 20260906015828 | 97 | 303 | 2.0 | 6.0 | 0.00 | 0.00 | 0.00 | 27 | 1010.7 |
| 20260906014822 | 98 | 303 | 2.0 | 4.0 | 0.00 | 0.00 | 0.00 | 26 | 1010.8 |
| 20260906013813 | 98 | 303 | 2.0 | 5.0 | 0.00 | 0.00 | 0.00 | 26 | 1010.9 |
| 20260906012826 | 99 | 303 | 3.0 | 8.0 | 0.00 | 0.00 | 0.00 | 26 | 1010.9 |
| 20260906011844 | 99 | 303 | 1.0 | 5.0 | 0.00 | 0.00 | 0.00 | 26 | 1011.0 |
| 20260906010816 | 100 | 303 | 2.0 | 6.0 | 0.00 | 0.00 | 0.00 | 25 | 1011.0 |
| 20260906005830 | 102 | 303 | 2.0 | 6.0 | 0.00 | 0.00 | 0.00 | 24 | 1011.0 |
| 20260906004822 | 102 | 303 | 3.0 | 6.0 | 0.00 | 0.00 | 0.00 | 24 | 1011.0 |
| 20260906003814 | 102 | 303 | 2.0 | 8.0 | 0.00 | 0.00 | 0.00 | 24 | 1011.0 |
| 20260906002812 | 102 | 303 | 3.0 | 9.0 | 0.00 | 0.00 | 0.00 | 24 | 1011.0 |
| 20260906001826 | 103 | 303 | 3.0 | 10.0 | 0.00 | 0.00 | 0.00 | 23 | 1010.9 |
| 20260906000818 | 104 | 303 | 4.0 | 9.0 | 0.00 | 0.00 | 0.00 | 24 | 1010.8 |
| 20260905235831 | 104 | 303 | 3.0 | 6.0 | 0.00 | 0.00 | 0.00 | 24 | 1010.7 |
| 20260905234825 | 104 | 303 | 3.0 | 9.0 | 0.00 | 0.00 | 0.00 | 24 | 1010.8 |
| 20260905233820 | 105 | 303 | 4.0 | 6.0 | 0.00 | 0.00 | 0.00 | 24 | 1010.8 |
| 20260905232834 | 105 | 303 | 3.0 | 8.0 | 0.00 | 0.00 | 0.00 | 25 | 1010.8 |
| 20260905231825 | 105 | 303 | 2.0 | 5.0 | 0.00 | 0.00 | 0.00 | 25 | 1010.8 |
| 20260905230837 | 104 | 303 | 3.0 | 10.0 | 0.00 | 0.00 | 0.00 | 26 | 1010.9 |
| 20260905225848 | 105 | 303 | 1.0 | 5.0 | 0.00 | 0.00 | 0.00 | 26 | 1010.9 |
| 20260905224819 | 105 | 303 | 2.0 | 9.0 | 0.00 | 0.00 | 0.00 | 26 | 1010.9 |
| 20260905223815 | 105 | 303 | 2.0 | 8.0 | 0.00 | 0.00 | 0.00 | 27 | 1010.9 |
| 20260905222827 | 104 | 303 | 1.0 | 6.0 | 0.00 | 0.00 | 0.00 | 27 | 1011.0 |
| 20260905221820 | 104 | 303 | 2.0 | 3.0 | 0.00 | 0.00 | 0.00 | 28 | 1011.1 |
| 20260905220812 | 104 | 303 | 3.0 | 8.0 | 0.00 | 0.00 | 0.00 | 27 | 1011.3 |
| 20260905215825 | 105 | 303 | 1.0 | 4.0 | 0.00 | 0.00 | 0.00 | 27 | 1011.3 |
| 20260905214823 | 105 | 303 | 2.0 | 9.0 | 0.00 | 0.00 | 0.00 | 27 | 1011.6 |
| 20260905213814 | 105 | 303 | 1.0 | 4.0 | 0.00 | 0.00 | 0.00 | 27 | 1011.7 |
| 20260905212847 | 105 | 303 | 2.0 | 4.0 | 0.00 | 0.00 | 0.00 | 27 | 1011.8 |
| 20260905211820 | 103 | 303 | 3.0 | 6.0 | 0.00 | 0.00 | 0.00 | 28 | 1011.8 |
| 20260905210832 | 105 | 303 | 1.0 | 4.0 | 0.00 | 0.00 | 0.00 | 27 | 1012.1 |
| 20260905205825 | 104 | 303 | 2.0 | 4.0 | 0.00 | 0.00 | 0.00 | 27 | 1012.1 |
| 20260905204843 | 104 | 303 | 1.0 | 3.0 | 0.00 | 0.00 | 0.00 | 28 | 1012.2 |
| 20260905203815 | 103 | 303 | 1.0 | 4.0 | 0.00 | 0.00 | 0.00 | 27 | 1012.4 |
| 20260905202830 | 103 | 303 | 1.0 | 2.0 | 0.00 | 0.00 | 0.00 | 30 | 1012.6 |
| 20260905201823 | 103 | 303 | 2.0 | 5.0 | 0.00 | 0.00 | 0.00 | 28 | 1012.9 |
| 20260905200833 | 103 | 303 | 1.0 | 4.0 | 0.00 | 0.00 | 0.00 | 28 | 1012.9 |
| 20260905195823 | 101 | 303 | 1.0 | 2.0 | 0.00 | 0.00 | 0.00 | 29 | 1012.9 |
| 20260905194819 | 101 | 303 | 1.0 | 3.0 | 0.00 | 0.00 | 0.00 | 29 | 1013.2 |
| 20260905193813 | 100 | 303 | 1.0 | 5.0 | 0.00 | 0.00 | 0.00 | 29 | 1013.3 |
| 20260905192827 | 102 | 303 | 0.0 | 4.0 | 0.00 | 0.00 | 0.00 | 30 | 1013.4 |
| 20260905191821 | 102 | 303 | 2.0 | 4.0 | 0.00 | 0.00 | 0.00 | 28 | 1013.6 |
| 20260905190819 | 101 | 303 | 1.0 | 4.0 | 0.00 | 0.00 | 0.00 | 29 | 1013.8 |
| 20260905185813 | 101 | 303 | 1.0 | 5.0 | 0.00 | 0.00 | 0.00 | 29 | 1013.9 |
| 20260905184825 | 101 | 303 | 2.0 | 5.0 | 0.00 | 0.00 | 0.00 | 29 | 1014.1 |
| 20260905183819 | 100 | 303 | 3.0 | 8.0 | 0.00 | 0.00 | 0.00 | 30 | 1014.2 |
| 20260905182831 | 99 | 303 | 2.0 | 3.0 | 0.00 | 0.00 | 0.00 | 30 | 1014.3 |
| 20260905181822 | 99 | 303 | 1.0 | 3.0 | 0.00 | 0.00 | 0.00 | 30 | 1014.4 |
| 20260905180819 | 98 | 303 | 0.0 | 4.0 | 0.00 | 0.00 | 0.00 | 32 | 1014.4 |
| 20260905175830 | 98 | 303 | 0.0 | 3.0 | 0.00 | 0.00 | 0.00 | 31 | 1014.5 |
| 20260905174843 | 99 | 303 | 1.0 | 3.0 | 0.00 | 0.00 | 0.00 | 31 | 1014.5 |
| 20260905173813 | 99 | 303 | 1.0 | 3.0 | 0.00 | 0.00 | 0.00 | 30 | 1014.5 |
| 20260905172827 | 99 | 303 | 1.0 | 3.0 | 0.00 | 0.00 | 0.00 | 31 | 1014.4 |
| 20260905171824 | 100 | 303 | 0.0 | 2.0 | 0.00 | 0.00 | 0.00 | 32 | 1014.5 |
| 20260905170817 | 97 | 303 | 1.0 | 2.0 | 0.00 | 0.00 | 0.00 | 33 | 1014.5 |
| 20260905165831 | 96 | 303 | 0.0 | 4.0 | 0.00 | 0.00 | 0.00 | 34 | 1014.6 |
| 20260905164844 | 97 | 303 | 1.0 | 3.0 | 0.00 | 0.00 | 0.00 | 33 | 1014.5 |
| 20260905163813 | 97 | 303 | 2.0 | 4.0 | 0.00 | 0.00 | 0.00 | 34 | 1014.4 |
| 20260905162831 | 96 | 303 | 0.0 | 2.0 | 0.00 | 0.00 | 0.00 | 35 | 1014.5 |
| 20260905161824 | 95 | 303 | 0.0 | 3.0 | 0.00 | 0.00 | 0.00 | 36 | 1014.4 |
| 20260905160817 | 95 | 303 | 0.0 | 1.0 | 0.00 | 0.00 | 0.00 | 37 | 1014.5 |
| 20260905155832 | 94 | 303 | 0.0 | 1.0 | 0.00 | 0.00 | 0.00 | 38 | 1014.5 |
| 20260905154824 | 94 | 303 | 0.0 | 0.0 | 0.00 | 0.00 | 0.00 | 37 | 1014.4 |
| 20260905153824 | 92 | 303 | 1.0 | 2.0 | 0.00 | 0.00 | 0.00 | 39 | 1014.3 |
| 20260905152836 | 91 | 303 | 0.0 | 1.0 | 0.00 | 0.00 | 0.00 | 43 | 1014.2 |
| 20260905151828 | 90 | 303 | 0.0 | 2.0 | 0.00 | 0.00 | 0.00 | 44 | 1014.3 |
| 20260905150822 | 90 | 303 | 0.0 | 2.0 | 0.00 | 0.00 | 0.00 | 43 | 1014.1 |
| 20260905145815 | 90 | 303 | 0.0 | 1.0 | 0.00 | 0.00 | 0.00 | 44 | 1014.1 |